Weather observations for the past three days for
Atkinson Municipal Airport
Imperial (Metric)
Date Time (cdt) Wind (mph) Vis. (mi.) Weather Sky Cond. Temperature (ºF) Relative Humidity Wind Chill (°F) Heat Index (°F) Pressure Precipitation (in)
Air Dwpt 6 hour altimeter (in) sea level (mb) 1 hr 3 hr 6 hr
Max. Min.
18 10:15 S 24 G 32 10.00 Partly Cloudy and Breezy SCT032 80.1 65.8 62% 82 29.9 0.0
18 09:55 S 20 G 29 10.00 Mostly Cloudy BKN030 80.2 66.2 62% 82 29.9 0.0
18 09:35 S 17 G 28 10.00 Mostly Cloudy BKN028 79.5 66.9 65% 82 29.9 0.0
18 09:15 S 18 G 26 10.00 Mostly Cloudy BKN028 BKN032 79.2 67.1 67% 81 29.9 0.0
18 08:55 S 21 G 35 10.00 Mostly Cloudy and Breezy BKN026 78.3 66.6 67% 80 29.9 0.0
18 08:35 S 16 G 28 10.00 Partly Cloudy SCT024 78.1 67.1 69% 80 29.89 0.0
18 08:15 S 15 G 23 10.00 Partly Cloudy SCT024 77.2 67.3 72% 79 29.88 0.0
18 07:55 S 16 G 28 10.00 Fair CLR 76.6 67.5 73% 78 29.87 0.0
18 07:35 S 15 G 22 10.00 Fair CLR 76.1 67.6 75% 77 29.87 0.0
18 07:15 S 15 G 21 10.00 Fair CLR 75.4 67.8 77% 76 29.87 0.0
18 06:55 S 13 10.00 Fair CLR 75.2 67.6 79 74.7 77% 76 29.87 0.0
18 06:35 S 13 G 18 10.00 Fair CLR 74.7 67.6 79% 29.86 0.0
18 06:15 S 13 G 18 10.00 Fair CLR 74.7 68 80% 29.86 0.0
18 05:55 S 13 G 18 10.00 Fair CLR 75 68 79% 76 29.85 0.0
18 05:35 S 13 G 20 10.00 Partly Cloudy SCT024 75 68.2 79% 76 29.84 0.0
18 05:15 S 10 G 22 10.00 Partly Cloudy SCT023 75.2 68.2 79% 76 29.83 0.0
18 04:55 S 12 G 17 10.00 Partly Cloudy SCT023 75.2 68.2 79% 76 29.83 0.0
18 04:35 S 12 G 17 10.00 Fair CLR 75.2 68.2 79% 76 29.83 0.0
18 04:15 S 13 G 18 10.00 Fair CLR 75.6 68.2 78% 77 29.82 0.0
18 03:55 S 15 G 18 10.00 Fair CLR 75.7 68.2 77% 77 29.81 0.0
18 03:35 S 14 G 18 10.00 Fair CLR 76.1 68 76% 77 29.81 0.0
18 03:15 S 13 G 21 10.00 Fair CLR 76.6 67.8 74% 78 29.81 0.0
18 02:55 S 14 G 21 10.00 Fair CLR 77 67.6 73% 79 29.82 0.0
18 02:35 S 15 G 21 10.00 Fair CLR 77.2 67.5 72% 79 29.82 0.0
18 02:15 S 13 G 18 10.00 Fair CLR 77.9 67.8 71% 80 29.83 0.0
18 01:55 S 14 G 17 10.00 Fair CLR 78.4 68 70% 81 29.82 0.0
18 01:35 S 13 G 21 10.00 Fair CLR 78.8 68.4 70% 81 29.82 0.0
18 01:15 S 12 G 20 10.00 Fair CLR 78.8 68.9 72% 81 29.83 0.0
18 00:55 S 13 10.00 Fair CLR 79.2 69.3 86.5 79 72% 82 29.83 0.0
18 00:35 S 12 10.00 Fair CLR 79.2 69.4 72% 82 29.83 0.0
18 00:15 S 13 G 17 10.00 Fair CLR 79.2 69.6 73% 82 29.83 0.0
17 23:55 S 9 G 18 10.00 Fair CLR 79.7 69.4 71% 83 29.83 0.0
17 23:35 S 9 G 18 10.00 Fair CLR 80.2 69.3 69% 83 29.83 0.0
17 23:15 S 12 10.00 Fair CLR 80.2 69.3 69% 83 29.83 0.0
17 22:55 S 10 G 16 10.00 Fair CLR 80.8 69.1 68% 84 29.83 0.0
17 22:35 S 13 10.00 Fair CLR 81 68.9 67% 84 29.82 0.0
17 22:15 S 10 10.00 Fair CLR 81.3 68.7 66% 84 29.82 0.0
17 21:55 S 8 10.00 Partly Cloudy SCT048 81.5 68.4 64% 84 29.82 0.0
17 21:35 S 9 10.00 Mostly Cloudy BKN050 81.7 68 63% 85 29.82 0.0
17 21:15 S 7 10.00 Partly Cloudy SCT050 82.4 67.5 61% 85 29.81 0.0
17 20:55 S 9 10.00 Fair CLR 83.3 67.1 58% 86 29.81 0.0
17 20:35 S 12 10.00 Fair CLR 83.7 67.1 58% 86 29.8 0.0
17 20:15 SE 10 10.00 Fair CLR 84.4 67.1 56% 87 29.8 0.0
17 19:55 S 10 10.00 Fair CLR 85.1 66.9 55% 88 29.8 0.0
17 19:35 S 12 G 17 10.00 Fair CLR 85.6 66.7 53% 88 29.8 0.0
17 19:15 S 12 G 18 10.00 Fair CLR 86.2 66.7 52% 89 29.8 0.0
17 18:55 S 15 G 18 10.00 Fair CLR 86.9 67.3 89.8 86.5 52% 90 29.8 0.0
17 18:35 S 16 10.00 Fair CLR 87.1 67.8 53% 90 29.8 0.0
17 18:15 S 14 10.00 Fair CLR 87.4 68.4 53% 91 29.79 0.0
17 17:55 S 14 G 20 10.00 Fair CLR 87.8 68.4 53% 92 29.8 0.0
17 17:35 S 15 G 21 10.00 Fair CLR 88 68.4 52% 92 29.8 0.0
17 17:15 S 14 G 18 10.00 Fair CLR 87.3 68.7 54% 91 29.81 0.0
17 16:55 S 16 G 23 10.00 Partly Cloudy SCT065 SCT080 SCT090 87.6 68.5 53% 92 29.81 0.0
17 16:35 S 15 G 23 10.00 Partly Cloudy SCT046 SCT065 SCT080 88.2 68.5 52% 92 29.82 0.0
17 16:15 SE 15 G 22 10.00 Partly Cloudy SCT044 SCT050 SCT065 88.5 69.6 54% 93 29.82 0.0
17 15:55 S 14 G 18 10.00 Fair CLR 88.9 67.6 50% 92 29.83 0.0
17 15:35 S 16 G 22 10.00 Partly Cloudy SCT048 88.9 68.5 51% 93 29.83 0.0
17 15:15 S 17 G 21 10.00 Partly Cloudy SCT045 SCT050 88.7 68.9 52% 93 29.84 0.0
17 14:55 S 20 G 24 10.00 Partly Cloudy SCT045 SCT055 SCT070 89.6 69.4 52% 95 29.85 0.0
17 14:35 S 14 G 21 10.00 Mostly Cloudy SCT045 BKN055 BKN070 88.2 68.5 52% 92 29.85 0.0
17 14:15 S 10 G 17 10.00 Partly Cloudy SCT047 SCT055 SCT070 89.1 68.7 51% 93 29.85 0.0
17 13:55 S 14 G 20 10.00 Partly Cloudy SCT041 SCT050 SCT065 89.8 69.8 52% 95 29.85 0.0
17 13:35 S 13 G 17 10.00 Mostly Cloudy SCT043 SCT050 BKN060 88.2 69.6 54% 93 29.86 0.0
17 13:15 S 13 G 17 10.00 Mostly Cloudy SCT041 BKN049 BKN060 87.1 69.3 56% 91 29.86 0.0
17 12:55 S 15 G 21 10.00 Mostly Cloudy SCT041 SCT048 BKN060 88.5 69.6 88.5 75 54% 93 29.86 0.0
17 12:35 S 17 G 22 10.00 Mostly Cloudy SCT041 BKN048 88 69.8 55% 93 29.86 0.0
17 12:15 S 15 G 23 10.00 Mostly Cloudy SCT039 BKN048 BKN070 87.4 69.8 56% 92 29.87 0.0
17 11:55 S 13 G 20 10.00 Mostly Cloudy SCT039 BKN048 BKN055 87.3 69.6 56% 92 29.87 0.0
17 11:35 S 15 G 23 10.00 Mostly Cloudy BKN041 BKN055 87.3 69.1 55% 92 29.87 0.0
17 11:15 S 16 G 21 7.00 Mostly Cloudy BKN040 86.9 69.6 57% 92 29.88 0.0
17 10:55 S 14 G 21 10.00 Partly Cloudy SCT036 SCT044 SCT049 86 69.4 58% 90 29.88 0.0
17 10:35 SW 15 G 21 10.00 Partly Cloudy SCT034 SCT046 85.3 69.3 59% 89 29.89 0.0
17 10:15 S 17 G 22 10.00 Partly Cloudy SCT034 SCT041 SCT046 85.3 70.2 61% 90 29.89 0.0
17 09:55 S 15 G 23 10.00 Partly Cloudy SCT030 SCT055 84.4 70.3 63% 89 29.89 0.0
17 09:35 S 10 10.00 Fair CLR 82.8 69.8 65% 87 29.9 0.0
17 09:15 S 13 G 17 10.00 Fair CLR 81.7 69.3 66% 85 29.9 0.0
17 08:55 S 9 G 16 10.00 Fair CLR 80.6 69.1 68% 84 29.9 0.0
17 08:35 S 9 10.00 Fair CLR 79.3 68.5 70% 82 29.9 0.0
17 08:15 S 9 10.00 Fair CLR 78.6 68.2 70% 81 29.9 0.0
17 07:55 S 8 10.00 Fair CLR 77.4 67.6 72% 79 29.89 0.0
17 07:35 S 8 10.00 Fair CLR 76.5 67.1 73% 78 29.88 0.0
17 07:15 S 7 10.00 Fair CLR 75.6 66.6 74% 77 29.87 0.0
17 06:55 S 6 10.00 Fair CLR 74.7 66.4 75.7 73.6 76% 29.86 0.0
17 06:35 S 6 10.00 Fair CLR 74.3 66.2 76% 29.85 0.0
17 06:15 S 7 10.00 Fair CLR 73.8 66.2 77% 29.84 0.0
17 05:55 S 7 10.00 Fair CLR 73.9 66.2 77% 29.84 0.0
17 05:35 S 7 10.00 Fair CLR 74.3 66.2 76% 29.83 0.0
17 05:15 S 7 10.00 Fair CLR 74.3 66.2 76% 29.83 0.0
17 04:55 S 6 10.00 Fair CLR 74.3 66.4 76% 29.83 0.0
17 04:35 S 7 10.00 Fair CLR 74.8 66.4 75% 29.83 0.0
17 04:15 S 7 10.00 Fair CLR 75.2 66.6 75% 76 29.83 0.0
17 03:55 S 8 10.00 Fair CLR 75 66.7 76% 76 29.84 0.0
17 03:35 S 8 10.00 Fair CLR 75 67.1 76% 76 29.84 0.0
17 03:15 S 8 10.00 Fair CLR 75 67.1 76% 76 29.84 0.0
17 02:55 S 7 10.00 Fair CLR 74.8 67.1 77% 29.85 0.0
17 02:35 S 6 10.00 Fair CLR 75.2 66.7 75% 76 29.86 0.0
17 02:15 S 6 10.00 Fair CLR 75.2 66.7 75% 76 29.86 0.0
17 01:55 S 6 10.00 Fair CLR 75.4 66.7 75% 77 29.86 0.0
17 01:35 S 6 10.00 Fair CLR 74.5 66.6 76% 29.87 0.0
17 01:15 S 3 10.00 Fair CLR 74.3 66.4 76% 29.87 0.0
17 00:55 Calm 10.00 Fair CLR 74.5 66.2 87.4 74.5 76% 29.87 0.0
17 00:35 S 3 10.00 Fair CLR 76.1 65.8 71% 78 29.88 0.0
17 00:15 S 3 10.00 Fair CLR 76.1 65.8 71% 78 29.88 0.0
16 23:55 S 3 10.00 Fair CLR 77.2 65.8 68% 79 29.88 0.0
16 23:35 S 7 10.00 Fair CLR 78.8 65.5 64% 81 29.88 0.0
16 23:15 S 6 10.00 Fair CLR 79 65.5 63% 81 29.87 0.0
16 22:55 S 7 10.00 Fair CLR 79.5 65.7 63% 81 29.87 0.0
16 22:35 S 7 10.00 Fair CLR 79.2 65.8 64% 81 29.87 0.0
16 22:15 S 6 10.00 Fair CLR 79.7 65.7 62% 82 29.87 0.0
16 21:55 S 6 10.00 Fair CLR 79.2 65.7 63% 81 29.86 0.0
16 21:35 S 5 10.00 Fair CLR 79 65.5 63% 81 29.86 0.0
16 21:15 S 3 10.00 Fair CLR 80.6 64.9 59% 82 29.85 0.0
16 20:55 S 6 10.00 Fair CLR 81.9 64.8 56% 84 29.84 0.0
16 20:35 S 7 10.00 Fair CLR 82.6 64.9 55% 84 29.84 0.0
16 20:15 S 9 10.00 Fair CLR 84.2 64.6 52% 86 29.83 0.0
16 19:55 S 10 10.00 Fair CLR 85.1 64.6 50% 87 29.83 0.0
16 19:35 S 8 10.00 Fair CLR 86 65.3 50% 88 29.83 0.0
16 19:15 S 9 10.00 Fair CLR 86.9 65.7 49% 89 29.82 0.0
16 18:55 S 9 G 17 10.00 Fair CLR 87.8 64.9 91.2 87.8 47% 90 29.82 0.0
16 18:35 S 10 G 17 10.00 Fair CLR 88 65.8 48% 90 29.82 0.0
16 17:55 S 9 4.00 Partly Cloudy SCT055 89.6 66.9 47% 93 29.81 0.0
16 17:35 S 9 G 21 7.00 Fair CLR 90.3 65.8 44% 93 29.81 0.0
16 17:15 S 10 G 21 10.00 Partly Cloudy SCT055 89.6 64.6 44% 91 29.82 0.0
16 16:55 S 13 G 18 7.00 Fair CLR 90.9 65.5 43% 93 29.81 0.0
16 16:35 S 14 G 21 10.00 Fair CLR 90.9 65.5 43% 93 29.82 0.0
16 16:15 S 17 G 23 10.00 Fair CLR 90.9 66 44% 94 29.82 0.0
16 15:55 S 16 G 23 10.00 Partly Cloudy SCT050 90 66 45% 93 29.82 0.0
16 15:35 S 13 G 22 10.00 Partly Cloudy SCT050 90 67.6 48% 94 29.82 0.0
16 15:15 S 15 G 23 10.00 Mostly Cloudy BKN050 89.2 66.9 48% 92 29.83 0.0
16 14:55 S 13 G 21 10.00 Mostly Cloudy BKN048 BKN055 90 67.8 48% 94 29.83 0.0
16 14:35 S 17 G 26 10.00 Partly Cloudy SCT048 88.7 67.5 50% 92 29.83 0.0
16 14:15 S 21 G 26 10.00 Partly Cloudy and Breezy SCT048 89.8 67.6 48% 93 29.84 0.0
16 13:55 S 13 G 24 10.00 Partly Cloudy SCT048 89.1 67.5 49% 92 29.84 0.0
16 13:35 S 17 G 23 10.00 Fair CLR 88.7 67.1 49% 92 29.86 0.0
16 13:15 SW 17 G 24 10.00 Partly Cloudy SCT044 88.7 68.4 51% 93 29.87 0.0
16 12:55 S 20 G 24 10.00 Fair CLR 88.2 67.8 88.7 73.6 51% 92 29.88 0.0
16 12:35 S 14 G 20 10.00 Partly Cloudy SCT042 SCT050 87.6 69.1 54% 92 29.89 0.0
16 12:15 S 17 G 23 10.00 Mostly Cloudy BKN042 BKN050 87.8 68.9 54% 92 29.91 0.0
16 11:55 SW 16 G 21 10.00 Partly Cloudy SCT041 SCT050 86.4 68.5 55% 90 29.91 0.0
16 11:35 SW 14 G 22 10.00 Partly Cloudy SCT037 SCT050 85.8 69.1 57% 90 29.92 0.0
16 11:15 SW 14 G 21 10.00 Partly Cloudy SCT037 SCT055 84.4 68.7 59% 88 29.92 0.0
16 10:55 S 14 G 21 10.00 Partly Cloudy SCT050 84.9 69.3 60% 89 29.93 0.0
16 10:35 SW 16 G 21 10.00 Partly Cloudy SCT050 SCT065 84.2 68.5 59% 88 29.93 0.0
16 10:15 SW 17 G 22 10.00 Partly Cloudy SCT050 SCT065 83.1 68.9 62% 87 29.94 0.0
16 09:55 S 10 10.00 Partly Cloudy SCT055 SCT065 82.4 69.6 65% 86 29.94 0.0
16 09:35 S 10 10.00 Partly Cloudy SCT049 SCT055 82 69.3 65% 86 29.93 0.0
16 09:15 SW 8 10.00 Mostly Cloudy BKN047 BKN055 80.8 69.3 68% 84 29.93 0.0
16 08:55 S 9 10.00 Partly Cloudy SCT047 SCT055 80.2 68.5 68% 83 29.92 0.0
16 08:35 S 9 10.00 Fair CLR 79.2 68.7 70% 82 29.92 0.0
16 08:15 S 7 10.00 Fair CLR 77.9 68 72% 80 29.91 0.0
16 07:55 SW 6 10.00 Fair CLR 76.5 67.6 74% 78 29.91 0.0
16 07:35 S 5 10.00 Fair CLR 75.6 67.6 77% 77 29.9 0.0
16 07:15 S 3 10.00 Fair CLR 74.5 67.6 79% 29.89 0.0
16 06:55 S 3 7.00 Fair CLR 73.2 67.3 77.9 72.1 82% 29.88 0.0
16 06:35 S 3 10.00 Fair CLR 72.1 67.3 85% 29.88 0.0
16 06:15 S 5 10.00 Fair CLR 72.1 67.3 85% 29.87 0.0
16 05:55 S 3 10.00 Fair CLR 73.4 66.7 80% 29.86 0.0
16 05:35 S 7 5.00 Fair CLR 73.8 67.1 80% 29.85 0.0
16 05:15 S 8 7.00 Fair CLR 73.8 67.3 80% 29.85 0.0
16 04:55 S 9 7.00 Fair CLR 74.3 67.5 79% 29.85 0.0
16 04:35 S 7 10.00 Fair CLR 74.3 68 81% 29.84 0.0
16 04:15 S 8 10.00 Fair CLR 74.7 68 80% 29.84 0.0
16 03:55 S 8 10.00 Fair CLR 74.7 68.2 80% 29.84 0.0
16 03:35 S 8 7.00 Fair CLR 75.2 68.2 79% 76 29.84 0.0
16 03:15 S 8 7.00 Fair CLR 75.6 68.4 78% 77 29.85 0.0
16 02:55 S 8 10.00 Fair CLR 75.2 68.7 80% 76 29.85 0.0
16 02:35 S 7 10.00 Fair CLR 75.2 68.7 80% 76 29.86 0.0
16 02:15 S 6 10.00 Fair CLR 76.1 68.5 78% 77 29.86 0.0
16 01:55 S 7 10.00 Fair CLR 76.5 68.9 78% 78 29.86 0.0
16 01:35 S 7 10.00 Fair CLR 77 68.9 76% 79 29.86 0.0
16 01:15 S 9 10.00 Fair CLR 77.4 68.9 75% 79 29.86 0.0
16 00:55 S 8 10.00 Fair CLR 77.5 68.7 88.2 77.5 74% 79 29.87 0.0
16 00:35 S 7 10.00 Fair CLR 78.1 68.4 72% 80 29.86 0.0
16 00:15 S 9 10.00 Fair CLR 78.8 68.4 70% 81 29.87 0.0
15 23:55 S 9 10.00 Fair CLR 79.5 68.4 69% 82 29.86 0.0
15 23:35 S 10 10.00 Fair CLR 79.7 68.4 68% 82 29.86 0.0
15 23:15 S 9 10.00 Fair CLR 79.2 68.7 70% 82 29.86 0.0
15 22:55 S 7 10.00 Fair CLR 79.7 68.5 69% 82 29.87 0.0
15 22:35 S 6 10.00 Fair CLR 79.9 68.5 68% 83 29.87 0.0
15 22:15 S 7 10.00 Fair CLR 80.2 68.2 67% 83 29.86 0.0
15 21:55 S 6 10.00 Fair CLR 81.1 67.6 64% 84 29.85 0.0
15 21:35 S 8 10.00 Fair CLR 81.3 67.5 63% 84 29.85 0.0
15 21:15 S 7 10.00 Fair CLR 81.5 67.1 62% 84 29.85 0.0
15 20:55 S 6 10.00 Fair CLR 82.4 66.7 59% 85 29.84 0.0
15 20:35 S 6 10.00 Fair CLR 82.9 67.3 59% 86 29.84 0.0
15 20:15 S 6 10.00 Fair CLR 84.2 66.9 56% 87 29.84 0.0
15 19:55 S 7 10.00 Fair CLR 85.3 66.4 53% 88 29.84 0.0
15 19:35 S 8 10.00 Fair CLR 85.6 66.2 52% 88 29.85 0.0
15 19:15 S 9 10.00 Fair CLR 87.8 66.9 50% 91 29.85 0.0
15 18:55 S 7 10.00 Fair CLR 88.2 68.5 90.5 87.1 52% 92 29.85 0.0
15 18:35 S 8 10.00 Fair CLR 88.7 68 50% 92 29.85 0.0
15 18:15 S 7 10.00 Fair CLR 88 67.6 51% 91 29.85 0.0
15 17:55 S 9 10.00 Fair CLR 88.7 68 50% 92 29.86 0.0
15 17:35 S 10 10.00 Fair CLR 89.6 68 49% 93 29.86 0.0
15 17:15 S 10 10.00 Fair CLR 89.6 67.6 48% 93 29.87 0.0
15 16:55 S 13 10.00 Fair CLR 90.1 67.3 47% 94 29.87 0.0
15 16:35 S 9 10.00 Fair CLR 90 67.5 48% 93 29.88 0.0
15 16:15 SE 10 10.00 Fair CLR 89.8 67.8 48% 94 29.89 0.0
15 15:55 S 10 10.00 Fair CLR 89.6 67.1 48% 93 29.9 0.0
15 15:35 S 10 10.00 Partly Cloudy SCT050 SCT055 89.1 69.3 52% 94 29.9 0.0
15 15:15 S 9 10.00 Partly Cloudy SCT050 SCT055 87.8 67.8 52% 91 29.9 0.0
15 14:55 S 8 10.00 Partly Cloudy SCT047 SCT070 89.2 70.3 54% 95 29.9 0.0
15 14:35 S 14 10.00 Partly Cloudy SCT045 SCT060 89.1 69.8 53% 94 29.91 0.0
15 14:15 S 10 G 17 10.00 Partly Cloudy SCT045 SCT060 88.2 69.6 54% 93 29.92 0.0
15 13:55 S 9 G 17 10.00 Partly Cloudy SCT060 SCT075 89.1 70.5 54% 95 29.92 0.0
15 13:35 S 7 10.00 Partly Cloudy SCT042 SCT050 SCT060 88.2 69.8 55% 93 29.93 0.0
15 12:55 S 8 10.00 Mostly Cloudy SCT042 SCT060 BKN075 86.7 70.5 87.3 75.9 59% 92 29.94 0.0
15 12:35 S 9 10.00 Mostly Cloudy SCT040 BKN046 BKN060 87.1 71.2 59% 93 29.94 0.0
15 12:15 SW 10 10.00 Partly Cloudy SCT038 SCT048 SCT060 86.9 69.4 56% 91 29.94 0.0
15 11:55 S 8 10.00 Mostly Cloudy SCT038 BKN050 BKN060 86.9 70.3 58% 92 29.95 0.0
15 11:35 SW 9 10.00 Mostly Cloudy SCT038 BKN050 86.2 70.7 60% 91 29.95 0.0
15 11:15 S 9 10.00 Mostly Cloudy BKN040 BKN050 85.1 70.7 62% 90 29.95 0.0
15 10:55 S 10 G 17 10.00 Mostly Cloudy SCT040 BKN050 86.5 70.5 59% 92 29.96 0.0
15 10:35 S 13 G 17 10.00 Fair CLR 85.6 70.5 61% 91 29.96 0.0
Date Time (cdt) Wind (mph) Vis. (mi.) Weather Sky Cond. Air Dwpt Max. Min. Relative Humidity Wind Chill (°F) Heat Index (°F) altimeter (in) sea level (mb) 1 hr 3 hr 6 hr
6 hour
Temperature (ºF) Pressure Precipitation (in)